Regional Weather Roundup
Issued by NWS

Home | Current Version | Previous Version | Graphics & Text | Print | Product List | Glossary On
Versions: 1 2 3 4 5 6 7 8 9 10 11 12 13 14 15 16 17 18 19 20 21 22 23 24 25 26 27 28 29 30 31 32 33 34 35 36 37 38 39 40 41 42 43 44 45 46 47 48 49 50
000
ASUS43 KOAX 271810
RWRNE

WEATHER ROUNDUP FOR NEBRASKA
NATIONAL WEATHER SERVICE OMAHA NE
100 PM CDT WED MAY 27 2015

NOTES: SATELLITE DATA IS BEING USED TO AUGMENT CLOUD COVER ABOVE
       12000 FEET.
       "FAIR" INDICATES FEW OR NO CLOUDS BELOW 12,000 FEET WITH NO
       SIGNIFICANT WEATHER AND/OR OBSTRUCTIONS TO VISIBILITY.

  * THESE STATIONS DO NOT REPORT WEATHER SUCH AS RAIN...SNOW OR FOG.

NEZ001>004-019>022-054>056-271900-
NEBRASKA PANHANDLE

CITY           SKY/WX    TMP DP  RH WIND       PRES   REMARKS
SCOTTSBLUFF    MOSUNNY   69  54  58 VRB5      30.03F
6HR MIN TEMP:  53; 6HR MAX TEMP:  70;

ALLIANCE       MOSUNNY   69  55  60 S16       30.03F
6HR MIN TEMP:  54; 6HR MAX TEMP:  69;

CHADRON        MOSUNNY   71  54  54 S9        29.99F
6HR MIN TEMP:  56; 6HR MAX TEMP:  72;

KIMBALL          N/A    N/A N/A N/A MISG        N/A
SIDNEY         MOSUNNY   68  55  63 SE14      30.06F
6HR MIN TEMP:  50; 6HR MAX TEMP:  68;

$$

NEZ057>060-069>072-079>082-271900-
SOUTHWEST NEBRASKA

CITY           SKY/WX    TMP DP  RH WIND       PRES   REMARKS
NORTH PLATTE   PTSUNNY   73  53  49 SE10      30.07F
6HR MIN TEMP:  50; 6HR MAX TEMP:  73;

IMPERIAL       PTSUNNY   70  57  63 S18G26    30.06F
6HR MIN TEMP:  51; 6HR MAX TEMP:  71;

LEXINGTON      PTSUNNY   75  51  42 SE10G17   30.09F HAZE
MCCOOK         LGT RAIN  67  57  70 SE6       30.08F
6HR MIN TEMP:  52; 6HR MAX TEMP:  72; 6HR PCP: TRACE;

OGALLALA       CLOUDY    71  56  59 S10G18    30.06F
$$

NEZ005>010-023>029-035>040-094-271900-
NORTH CENTRAL NEBRASKA

CITY           SKY/WX    TMP DP  RH WIND       PRES   REMARKS
VALENTINE      CLOUDY    70  51  51 S16G23    30.06F
6HR MIN TEMP:  49; 6HR MAX TEMP:  71; 6HR PCP: TRACE;

AINSWORTH      CLOUDY    72  51  47 S9        30.08S
BROKEN BOW     PTSUNNY   73  47  39 S16       30.09S
6HR MIN TEMP:  49; 6HR MAX TEMP:  75;

O`NEILL        MOSUNNY   78  50  37 S8        30.07F
ORD            MOSUNNY   76  46  34 S9        30.07F
6HR MIN TEMP:  47; 6HR MAX TEMP:  77;

THEDFORD       CLOUDY    73  50  43 SE10      30.08F
$$

NEZ041-046>049-061>064-073>077-083>087-271900-
SOUTH CENTRAL NEBRASKA

CITY           SKY/WX    TMP DP  RH WIND       PRES   REMARKS
GRAND ISLAND   FAIR      79  43  27 S10       30.09F
6HR MIN TEMP:  52; 6HR MAX TEMP:  80;

AURORA         FAIR      77  43  29 SW7       30.09S
HASTINGS       FAIR      76  49  38 SE7G16    30.10S
6HR MIN TEMP:  52; 6HR MAX TEMP:  76;

HEBRON         FAIR      78  41  26 S5        30.09S
HOLDREGE       FAIR      76  46  34 S12G17    30.09S
KEARNEY *      FAIR      77  45  31 SE12G17   30.09F
YORK           FAIR      77  46  33 S9        30.09F
$$

NEZ011>018-030>034-042>045-271900-
NORTHEAST NEBRASKA

CITY           SKY/WX    TMP DP  RH WIND       PRES   REMARKS
NORFOLK        FAIR      80  52  37 CALM      30.06S
6HR MIN TEMP:  55; 6HR MAX TEMP:  80;

ALBION         FAIR      77  45  31 S7        30.08S
BLAIR          FAIR      79  48  33 SW7       30.07S
COLUMBUS *     FAIR      79  45  29 SW6       30.09S
FREMONT        FAIR      80  50  35 CALM      30.07S
TEKAMAH        FAIR      82  52  35 VRB3      30.05S
6HR MIN TEMP:  58; 6HR MAX TEMP:  82;

WAYNE          FAIR      80  51  36 CALM      30.05F
$$

NEZ050>053-065>068-078-088>093-271900-
SOUTHEAST NEBRASKA

CITY           SKY/WX    TMP DP  RH WIND       PRES   REMARKS
LINCOLN        FAIR      82  48  30 CALM      30.09R
6HR MIN TEMP:  53; 6HR MAX TEMP:  82;

OMAHA EPPLEY   FAIR      80  53  39 S7        30.06S
6HR MIN TEMP:  55; 6HR MAX TEMP:  80;

BEATRICE       FAIR      78  50  37 CALM      30.09F
FALLS CITY     FAIR      79  49  34 CALM      30.09S
6HR MIN TEMP:  57; 6HR MAX TEMP:  80;

NEBRASKA CITY  FAIR      78  44  29 CALM      30.09S
PLATTSMOUTH    FAIR      80  43  27 CALM      30.07F
$$

NEZ044-045-051>053-067-271900-
OMAHA AREA

CITY           SKY/WX    TMP DP  RH WIND       PRES   REMARKS
OMAHA EPPLEY   FAIR      80  53  39 S7        30.06S
6HR MIN TEMP:  55; 6HR MAX TEMP:  80;

BLAIR          FAIR      79  48  33 SW7       30.07S
FREMONT        FAIR      80  50  35 CALM      30.07S
MILLARD        FAIR      80  55  41 CALM      30.06S
OFFUTT AFB     FAIR      79  59  49 VRB6      30.06S
PLATTSMOUTH    FAIR      80  43  27 CALM      30.07F
WAHOO          FAIR      80  50  34 CALM      30.07S
$$


USA.gov is the U.S. government's official web portal to all federal, state and local government web resources and services.